Wind_Speed
24 27 29 30 32 37 39 37 38 33 34 34 32 33 32 31 32 33 32 33 36 32 28 28 23 18 16 19 18 18 21 23 23 20 19 21 24 26 25 25 26 27 28 29
25 28 30 25 25 34 39 38 40 38 32 35 33 34 32 29 30 31 30 30 30 28 25 27 33 31 21 22 21 22 25 24 25 27 27 25 24 26 25 25 26 27 26 25
28 27 27 22 24 31 36 37 37 35 35 35 34 34 31 28 28 28 28 24 25 22 22 24 23 27 26 35 38 28 25 26 26 26 25 24 25 26 26 26 27 26 23 22
32 30 27 24 25 29 32 32 33 36 35 34 35 33 31 27 24 25 25 20 21 20 19 18 15 15 18 22 25 23 23 24 23 23 22 24 26 27 26 24 22 21 21 21
30 31 27 22 25 30 31 27 24 33 39 38 36 33 32 27 21 22 23 19 17 17 16 14 12 11 8 8 10 14 16 18 21 23 25 25 27 29 27 23 22 24 23 22
29 31 29 27 26 29 31 24 26 30 33 39 40 37 32 26 20 20 20 19 17 16 14 13 12 13 11 10 11 13 17 21 24 24 24 22 20 22 20 19 19 18 18 17
28 30 30 31 32 31 31 30 26 28 29 32 34 37 29 24 20 18 18 18 15 13 13 12 12 11 9 7 7 9 11 15 17 17 17 16 16 16 16 15 15 15 15 15
33 30 30 31 32 33 32 31 28 27 28 29 29 32 29 24 21 17 17 15 13 10 10 8 7 8 9 9 8 6 5 5 4 4 6 9 13 15 15 14 13 13 13 12
36 35 36 35 33 33 35 34 31 30 28 28 26 29 33 30 24 19 18 16 15 13 12 10 9 9 10 9 8 8 7 7 4 4 3 5 7 8 8 8 10 11 13 16
37 37 40 38 36 35 34 34 32 30 31 28 27 29 35 36 29 24 20 18 17 17 16 14 13 13 12 11 9 9 9 8 6 2 4 4 5 7 8 9 11 13 15 13
38 36 37 39 42 42 38 36 34 31 30 28 28 28 32 36 32 26 24 21 20 20 19 18 16 14 14 13 11 10 9 8 7 4 3 4 6 8 10 10 11 11 12 13
42 39 36 35 39 40 40 38 36 33 31 29 27 26 30 34 34 28 26 24 24 23 22 20 17 15 14 12 12 12 12 11 11 10 9 10 11 12 12 12 13 15 15 15
49 49 47 41 37 41 42 41 39 37 33 32 28 28 28 31 35 33 28 26 25 26 26 25 22 20 18 15 14 13 14 14 15 15 14 14 15 15 16 16 17 17 17 16
53 53 51 46 41 41 43 43 42 40 36 34 31 30 25 26 28 23 24 28 32 31 30 29 27 25 23 21 18 17 17 17 17 17 17 16 16 17 18 18 18 18 18 18
55 55 54 53 50 45 43 41 41 40 38 35 32 30 28 25 20 15 17 19 25 31 32 31 29 27 25 23 23 22 21 19 18 18 18 17 17 17 18 18 19 19 19 19
56 55 52 52 51 49 47 44 45 40 38 39 36 34 34 32 30 27 25 27 29 28 29 30 30 29 28 27 26 25 24 22 20 20 19 19 18 18 19 19 19 19 19 18
57 56 55 53 49 45 47 49 47 42 43 46 44 42 40 37 35 35 31 26 27 24 25 28 29 28 26 23 22 23 24 23 22 21 21 22 21 20 21 21 20 19 19 18
54 54 56 57 56 53 46 40 36 36 40 43 48 52 45 41 38 36 31 28 29 25 23 21 21 22 23 22 18 17 19 21 23 24 23 23 23 22 22 21 20 19 18 16
62 55 55 56 55 59 56 51 44 39 38 40 46 51 47 42 36 35 34 29 28 24 23 21 19 18 18 18 16 16 16 18 21 22 22 23 24 23 21 21 19 19 18 16
65 63 61 58 57 60 61 58 49 44 40 41 45 36 39 41 39 38 38 34 28 22 26 22 19 18 15 14 15 16 17 16 17 19 22 24 24 23 22 21 19 19 19 18
74 74 77 76 70 69 73 73 63 51 48 40 36 33 31 43 44 43 43 38 33 31 32 27 22 21 19 16 13 16 18 16 14 14 18 22 23 22 21 20 19 19 20 20
74 76 79 85 87 83 82 80 77 68 58 49 45 40 32 34 43 46 48 43 39 38 36 32 28 26 23 21 17 17 20 20 17 15 15 17 19 20 20 19 17 18 19 21
66 65 64 63 63 65 69 73 76 73 69 60 52 50 42 33 36 44 48 44 39 38 35 32 30 29 28 27 23 20 23 24 21 17 16 16 16 16 17 17 17 17 18 19
51 43 40 39 39 41 46 52 59 61 60 61 57 54 51 44 38 40 42 41 39 40 37 33 32 31 31 32 32 27 25 26 24 19 17 17 17 17 17 18 18 19 21 22
34 34 34 32 31 27 27 32 38 40 44 50 50 47 49 53 49 41 43 46 42 38 37 35 36 37 37 37 38 35 31 31 30 26 23 23 21 20 20 21 23 24 23 23
34 33 34 32 31 31 28 22 18 19 25 31 36 39 40 44 47 46 43 40 40 39 37 37 37 40 42 42 41 37 34 32 34 32 28 28 26 23 23 24 26 24 18 15
33 33 32 29 25 22 20 16 9 13 17 19 22 28 31 34 37 38 37 38 38 36 36 36 38 41 42 43 44 44 41 36 35 33 33 33 29 25 22 24 28 25 20 17
Wind_Direction
302 298 295 286 287 291 291 289 289 289 289 292 295 299 307 316 318 322 323 316 318 317 299 293 279 290 296 273 259 241 240 242 244 243 248 251 259 264 263 261 259 259 260 264
306 300 297 301 294 286 287 286 279 281 287 288 290 295 304 311 314 323 323 317 315 312 309 302 295 295 279 250 255 258 262 256 248 242 238 241 249 258 263 264 265 265 265 266
308 300 297 310 304 297 292 285 281 282 281 283 284 289 297 307 312 322 321 315 320 318 310 319 305 286 278 266 265 274 273 268 259 255 249 245 252 261 263 267 268 267 266 268
312 307 307 317 309 306 306 302 290 281 280 282 283 287 293 303 309 318 320 316 324 334 323 320 324 297 272 262 266 269 256 250 256 261 259 257 262 268 267 268 269 268 267 270
316 312 315 324 313 309 314 326 302 281 272 277 283 284 288 295 304 311 318 313 317 332 338 337 331 333 308 268 254 255 254 253 257 260 260 261 256 251 258 263 265 268 270 270
320 320 325 327 313 307 309 312 304 299 288 279 275 276 282 287 294 299 310 311 308 313 324 331 332 329 325 309 287 272 267 266 265 263 259 256 250 245 245 251 261 260 263 267
314 318 323 321 316 313 311 311 304 301 300 289 280 268 271 277 285 288 297 308 311 308 311 322 333 340 346 337 309 293 286 277 269 263 257 251 242 232 228 234 242 249 264 279
310 315 317 315 314 315 314 315 311 302 296 293 283 266 261 270 277 280 281 292 302 307 308 321 338 356 8 10 3 352 343 335 310 258 230 223 226 230 232 237 249 263 271 275
305 311 310 309 308 309 310 313 313 310 306 293 288 268 257 261 267 269 270 270 279 286 288 295 304 315 322 324 332 343 355 3 23 80 145 194 211 222 226 242 263 270 279 290
306 304 301 303 302 301 299 301 304 306 309 298 292 280 262 259 259 261 262 263 263 266 271 279 288 296 297 298 306 320 333 345 0 76 144 189 225 247 261 270 275 280 287 293
318 311 302 302 304 306 305 302 301 301 304 304 295 287 272 259 256 259 257 257 261 262 266 271 275 279 279 282 291 303 312 321 326 327 302 275 272 273 274 276 277 280 285 291
317 315 309 303 298 301 300 299 298 297 297 299 294 286 281 266 255 257 259 257 259 262 264 265 268 272 280 286 288 287 287 288 288 287 284 283 285 285 288 293 296 296 297 301
311 312 311 307 298 294 293 293 291 290 290 290 288 280 280 268 259 255 257 261 262 261 259 260 262 264 268 273 278 280 280 278 276 274 274 278 283 286 288 296 303 306 307 306
304 306 307 303 298 294 288 286 287 288 285 286 286 276 273 273 273 276 268 266 264 263 262 260 259 259 259 257 258 264 272 276 275 274 274 277 280 282 285 290 296 301 303 299
301 302 302 301 299 294 287 284 285 285 280 279 278 268 264 264 263 269 280 290 279 265 260 257 254 253 254 255 254 256 262 267 267 268 271 275 279 281 283 287 292 297 298 296
298 298 296 293 292 288 284 282 282 277 269 269 270 265 257 250 250 257 273 280 287 276 257 250 247 248 254 261 259 255 255 259 260 259 263 267 271 274 277 282 287 292 295 296
296 293 291 288 284 282 281 281 279 274 264 264 268 267 258 249 249 254 264 271 277 273 254 243 242 248 251 254 258 254 252 251 258 260 258 262 265 267 273 279 283 286 290 294
292 283 282 288 290 287 280 272 269 271 265 266 269 274 265 253 249 252 255 259 264 266 256 246 243 245 248 253 255 256 254 253 256 262 260 261 265 267 271 277 280 281 284 289
290 278 272 276 277 278 277 272 270 273 265 266 280 269 254 247 245 244 245 249 259 260 252 242 237 241 245 251 254 255 255 257 260 260 258 261 263 266 271 274 274 273 276 281
280 275 273 274 277 277 275 271 268 269 268 266 267 254 243 244 245 241 238 234 236 245 254 248 238 237 245 253 257 260 262 261 262 262 261 264 264 265 268 267 266 269 273 276
277 276 275 274 276 272 271 270 269 264 257 254 254 253 245 233 229 232 235 236 234 236 242 243 236 234 240 247 258 268 268 267 269 271 266 264 264 265 264 260 259 263 265 269
289 285 282 280 280 273 267 266 269 268 261 254 253 252 245 226 224 229 230 229 230 232 233 235 236 235 236 245 257 269 269 268 274 278 274 265 261 262 261 259 258 261 264 269
303 298 294 289 283 276 269 266 268 269 266 260 256 254 248 242 231 223 223 221 224 227 232 234 236 243 246 250 255 265 270 267 270 276 282 275 261 257 261 262 260 263 267 270
313 313 313 309 301 289 276 268 265 266 266 263 259 257 250 243 233 222 215 209 214 217 223 231 236 239 245 248 251 257 262 259 259 262 275 286 270 255 261 269 271 273 273 274
324 325 328 330 327 317 297 275 266 264 262 261 260 259 256 253 246 233 230 227 224 227 231 233 236 238 242 246 249 254 256 254 252 252 257 274 280 263 255 266 275 277 280 280
325 326 327 330 329 324 323 310 283 257 251 254 258 258 256 251 248 247 247 241 231 231 235 237 237 241 242 243 246 251 253 250 248 248 252 265 271 265 257 263 273 274 277 281
318 319 318 322 324 324 328 329 283 227 220 229 244 251 252 249 246 247 248 242 235 235 240 242 241 239 241 244 246 251 252 248 248 249 253 256 259 263 263 267 268 269 276 283
Height
5800 5797 5792 5791 5790 5786 5783 5780 5775 5774 5772 5771 5769 5765 5762 5759 5753 5747 5741 5734 5729 5723 5717 5715 5714 5712 5704 5707 5709 5709 5712 5716 5717 5721 5724 5725 5729 5731 5731 5732 5734 5734 5734 5735
5793 5789 5784 5783 5783 5777 5772 5769 5766 5764 5764 5760 5760 5757 5754 5753 5748 5741 5734 5728 5724 5718 5713 5709 5705 5704 5705 5706 5706 5707 5708 5708 5711 5713 5717 5719 5721 5723 5726 5727 5726 5725 5725 5726
5786 5781 5777 5778 5774 5768 5763 5759 5757 5755 5755 5752 5751 5749 5746 5746 5741 5735 5730 5725 5720 5714 5709 5704 5699 5696 5696 5698 5700 5701 5701 5701 5704 5708 5710 5712 5714 5716 5718 5718 5717 5716 5717 5718
5779 5776 5773 5775 5766 5759 5754 5752 5750 5748 5745 5743 5742 5741 5738 5739 5735 5730 5726 5721 5716 5711 5707 5702 5697 5694 5693 5693 5693 5695 5697 5698 5700 5703 5705 5706 5707 5707 5708 5709 5709 5709 5711 5712
5773 5769 5768 5768 5761 5753 5748 5747 5742 5736 5734 5735 5735 5734 5732 5732 5729 5726 5721 5716 5712 5709 5706 5702 5698 5696 5694 5693 5692 5694 5694 5695 5695 5696 5698 5699 5700 5701 5701 5702 5703 5705 5706 5706
5767 5762 5760 5762 5756 5751 5746 5742 5737 5732 5730 5727 5726 5726 5726 5724 5723 5720 5717 5713 5708 5706 5704 5701 5699 5696 5693 5691 5691 5692 5692 5691 5689 5690 5691 5691 5692 5694 5695 5696 5697 5699 5700 5700
5762 5758 5754 5751 5747 5744 5741 5737 5732 5727 5723 5719 5718 5716 5718 5717 5716 5715 5713 5710 5705 5702 5701 5699 5696 5694 5692 5690 5689 5688 5687 5686 5685 5684 5684 5685 5687 5688 5690 5692 5693 5694 5695 5695
5756 5753 5750 5745 5739 5736 5733 5730 5725 5721 5716 5712 5710 5708 5709 5710 5709 5709 5708 5706 5703 5700 5699 5697 5695 5693 5691 5689 5688 5687 5686 5684 5681 5680 5681 5683 5684 5686 5688 5689 5689 5690 5690 5690
5750 5747 5741 5737 5732 5728 5723 5720 5717 5714 5710 5706 5703 5700 5700 5701 5701 5701 5701 5700 5699 5697 5696 5694 5692 5691 5690 5689 5688 5686 5684 5682 5680 5678 5679 5681 5682 5683 5684 5684 5684 5685 5686 5686
5742 5740 5733 5729 5724 5720 5716 5712 5708 5704 5702 5698 5696 5693 5691 5692 5693 5693 5694 5694 5693 5693 5693 5691 5689 5688 5688 5687 5687 5685 5683 5681 5679 5678 5678 5679 5680 5680 5681 5682 5682 5683 5683 5682
5736 5732 5727 5723 5716 5711 5708 5704 5699 5695 5693 5691 5688 5686 5683 5683 5684 5685 5686 5686 5686 5687 5687 5686 5685 5685 5685 5684 5683 5682 5681 5679 5679 5678 5678 5678 5678 5678 5679 5679 5679 5680 5679 5679
5725 5720 5715 5714 5709 5703 5697 5694 5690 5686 5684 5682 5680 5678 5675 5674 5674 5676 5678 5679 5679 5679 5679 5679 5679 5679 5679 5678 5678 5677 5677 5677 5676 5676 5676 5676 5677 5677 5676 5676 5676 5676 5675 5675
5713 5708 5703 5700 5697 5692 5687 5684 5681 5678 5675 5673 5671 5669 5667 5666 5665 5666 5668 5671 5671 5671 5671 5671 5671 5672 5673 5673 5673 5673 5673 5672 5672 5672 5672 5672 5672 5673 5672 5672 5671 5671 5670 5669
5699 5695 5691 5687 5683 5679 5676 5673 5670 5669 5667 5664 5662 5660 5659 5658 5657 5658 5660 5661 5661 5662 5662 5663 5663 5665 5666 5667 5668 5668 5668 5668 5668 5669 5668 5668 5668 5667 5667 5667 5667 5666 5666 5665
5687 5681 5677 5673 5668 5664 5661 5659 5657 5656 5655 5654 5653 5652 5652 5651 5652 5652 5652 5653 5652 5651 5652 5653 5655 5656 5658 5660 5661 5662 5662 5663 5663 5664 5663 5663 5663 5662 5662 5662 5662 5662 5662 5661
5676 5669 5663 5658 5654 5649 5646 5644 5642 5641 5642 5641 5641 5642 5642 5642 5643 5644 5644 5644 5643 5642 5642 5643 5646 5648 5651 5652 5653 5654 5655 5656 5657 5657 5657 5657 5657 5657 5657 5657 5657 5656 5656 5655
5659 5654 5649 5644 5639 5635 5631 5629 5626 5625 5625 5626 5626 5627 5629 5629 5631 5633 5635 5635 5636 5635 5634 5634 5637 5639 5642 5644 5645 5646 5647 5649 5649 5649 5650 5650 5650 5650 5650 5651 5650 5649 5649 5648
5640 5636 5631 5627 5622 5619 5617 5614 5610 5609 5608 5608 5608 5607 5612 5615 5618 5622 5624 5625 5627 5628 5628 5628 5629 5632 5634 5636 5637 5638 5640 5641 5642 5642 5642 5643 5643 5643 5643 5643 5643 5643 5642 5641
5621 5615 5611 5609 5606 5602 5598 5598 5597 5596 5595 5594 5590 5589 5594 5599 5604 5608 5610 5613 5616 5619 5621 5621 5622 5624 5626 5628 5630 5631 5633 5634 5634 5634 5634 5635 5635 5635 5635 5636 5636 5636 5635 5635
5600 5595 5591 5585 5582 5581 5579 5577 5578 5579 5578 5577 5578 5575 5576 5582 5589 5592 5595 5600 5605 5610 5611 5614 5616 5617 5618 5621 5623 5625 5626 5627 5627 5627 5627 5628 5629 5628 5628 5628 5629 5629 5629 5629
5575 5567 5561 5555 5553 5555 5554 5551 5552 5558 5559 5559 5561 5565 5565 5566 5572 5577 5583 5591 5597 5599 5599 5603 5607 5609 5611 5613 5615 5618 5620 5622 5622 5621 5620 5621 5622 5622 5622 5622 5623 5623 5623 5623
5549 5540 5533 5527 5522 5523 5526 5525 5524 5531 5538 5540 5543 5550 5556 5557 5559 5563 5568 5578 5585 5586 5588 5591 5596 5600 5602 5603 5607 5609 5612 5615 5616 5615 5614 5613 5614 5616 5617 5617 5617 5617 5617 5617
5524 5514 5505 5498 5493 5491 5496 5499 5499 5503 5513 5522 5526 5533 5541 5545 5550 5555 5557 5564 5569 5575 5578 5581 5587 5592 5594 5594 5597 5600 5603 5606 5607 5608 5608 5607 5607 5609 5611 5612 5612 5612 5611 5611
5502 5492 5485 5478 5472 5470 5471 5474 5476 5481 5490 5500 5510 5518 5525 5532 5538 5544 5547 5548 5553 5560 5566 5571 5576 5580 5582 5584 5587 5590 5594 5596 5598 5599 5602 5603 5602 5602 5604 5605 5606 5605 5605 5604
5494 5488 5480 5473 5466 5461 5458 5457 5460 5465 5473 5483 5495 5504 5511 5518 5526 5531 5539 5541 5543 5549 5556 5561 5566 5570 5571 5572 5575 5580 5585 5588 5590 5590 5592 5596 5598 5597 5597 5599 5599 5599 5599 5598
5490 5483 5476 5469 5463 5457 5453 5450 5451 5454 5460 5470 5481 5492 5501 5508 5515 5520 5525 5532 5537 5541 5544 5548 5553 5558 5560 5562 5565 5569 5575 5578 5580 5583 5584 5587 5590 5591 5591 5592 5593 5593 5593 5592
5485 5478 5470 5465 5459 5455 5452 5451 5450 5449 5452 5460 5472 5482 5491 5498 5504 5509 5514 5521 5527 5531 5533 5537 5540 5545 5549 5552 5554 5557 5563 5568 5570 5573 5575 5579 5582 5583 5583 5584 5585 5586 5587 5587